Location: Budapest
(47.4979°N, 19.0402°E)
Time: 19:49:38
(UTC+02:00)

Tiangong 2 - Pass Details

Date: 14 October 2017
Orbit: 388 x 391 km, 42.8° (Epoch: 21 October)

Event Time Altitude Azimuth Distance (km) Brightness Sun altitude
Exits shadow 06:21:31 - 254° (WSW) 1,512 3.5 -7.4°
Reaches altitude 10° 06:21:46 10° 252° (WSW) 1,421 3.3 -7.4°
Maximum altitude 06:24:41 32° 187° (S) 692 2.3 -6.9°
Drops below altitude 10° 06:27:35 10° 122° (ESE) 1,421 5.1 -6.4°
Sets 06:29:47 0° 112° (ESE) 2,276 6.8 -6.1°
